Simultaneous Nadir Overpasses (SNOs) Predictions

Prediction of SNOs between GOES-16 and METOP-C Satellite Orbit:

Table of predicted SNOs for the next 14.0 days since TLE Epoch: 6/11/2022
Index Date Time (GOES-16) GOES-16 Lat,Lon METOP-C Lat,Lon Distance(km) Time Diff (sec)
1 06/13/2022 14:31:24 0.04, -75.21 -0.06, -74.77 50.67 80
2 06/15/2022 02:50:25 -0.03, -75.20 -0.98, -79.37 475.38 80
3 06/16/2022 02:27:07 -0.03, -75.21 0.17, -74.39 93.86 80
4 06/17/2022 14:45:58 0.03, -75.23 0.84, -78.95 423.47 80
5 06/18/2022 14:27:58 0.03, -75.24 -0.25, -73.95 146.31 80
6 06/20/2022 02:47:00 -0.02, -75.24 -0.77, -78.56 378.05 80
7 06/21/2022 02:23:40 -0.02, -75.25 0.33, -73.56 192.36 80
8 06/22/2022 14:42:32 0.02, -75.30 0.64, -78.14 323.26 80
9 06/23/2022 14:24:33 0.02, -75.31 -0.46, -73.14 247.62 80
10 06/25/2022 02:43:34 -0.02, -75.33 -0.54, -77.75 275.19 80
